Weather History for Jamestown, NY

Change the Weather History Date:

Saturday, February 16, 2013

  Actual Average Record
Temperature  
Mean Temperature 18 °F -  
Max Temperature 23 °F 37 °F 60 °F (1990)
Min Temperature 14 °F 17 °F -11 °F (1978)
Degree Days  
Heating Degree Days 46    
Moisture  
Dew Point 8 °F    
Average Humidity 64    
Maximum Humidity 80    
Minimum Humidity 49    
Precipitation  
Precipitation 0.00 in - - ()
Sea Level Pressure  
Sea Level Pressure 29.93 in    
Wind  
Wind Speed 5 mph (West)    
Max Wind Speed 15 mph    
Max Gust Speed 16 mph    
Visibility 10 miles    
Events      
Averages and records for this station are not official NWS values.
T = Trace of Precipitation, MM = Missing Value Source: NWS Daily Summary

Daily Weather History Graph

Daily Weather History Graph

Search for Another Location

Airport:

Trip Planner

Search our weather history database for the weather conditions in past years. The results will help you decide how hot, cold, wet, or windy it might be!

Date:

Astronomy

Feb. 16, 2013 Rise Set
Actual Time 7:11 AM EST 5:51 PM EST
Civil Twilight 6:42 AM EST 6:19 PM EST
Nautical Twilight 6:10 AM EST 6:52 PM EST
Astronomical Twilight 5:37 AM EST 7:25 PM EST
Moon 10:15 AM EST (2/16) No Moon Set
Length of Visible Light 11h 37m
Length of Day
10h 39m
Waxing Crescent, 39% of the Moon is Illuminated
Feb 16
Waxing Crescent
Feb 17
First Quarter
Feb 25
Full
Mar 4
Last Quarter
Mar 11
New

Hourly Weather History & Observations

Time (EST) Temp. Windchill Dew Point Humidity Pressure Visibility Wind Dir Wind Speed Gust Speed Precip Events Conditions
12:15 AM 19.4 °F 10.4 °F 10.4 °F 68% 30.01 in 10.0 mi NW 6.9 mph - N/A   Overcast
12:35 AM 19.4 °F 11.5 °F 10.4 °F 68% 30.00 in 10.0 mi NW 5.8 mph - N/A   Overcast
12:55 AM 19.4 °F 12.8 °F 10.4 °F 68% 30.01 in 10.0 mi NW 4.6 mph - N/A   Overcast
1:15 AM 17.6 °F 9.3 °F 10.4 °F 73% 30.00 in 10.0 mi NW 5.8 mph - N/A   Overcast
1:35 AM 17.6 °F 10.7 °F 10.4 °F 73% 30.00 in 10.0 mi NW 4.6 mph - N/A   Overcast
1:55 AM 17.6 °F 12.3 °F 10.4 °F 73% 29.99 in 10.0 mi NW 3.5 mph - N/A   Overcast
2:15 AM 17.6 °F 9.3 °F 10.4 °F 73% 29.99 in 10.0 mi WNW 5.8 mph - N/A   Overcast
2:35 AM 17.6 °F 10.7 °F 10.4 °F 73% 29.99 in 10.0 mi NW 4.6 mph - N/A   Overcast
2:55 AM 17.6 °F 12.3 °F 10.4 °F 73% 29.99 in 10.0 mi NW 3.5 mph - N/A   Overcast
3:15 AM 17.6 °F - 10.4 °F 73% 29.98 in 10.0 mi Calm Calm - N/A   Overcast
3:35 AM 17.6 °F - 10.4 °F 73% 29.97 in 10.0 mi Calm Calm - N/A   Overcast
3:55 AM 17.6 °F 9.3 °F 8.6 °F 68% 29.97 in 10.0 mi NW 5.8 mph - N/A   Overcast
4:15 AM 17.6 °F - 6.8 °F 63% 29.97 in 10.0 mi Calm Calm - N/A   Overcast
4:35 AM 17.6 °F - 6.8 °F 63% 29.97 in 10.0 mi Calm Calm - N/A   Overcast
4:55 AM 17.6 °F 12.3 °F 6.8 °F 63% 29.97 in 10.0 mi WSW 3.5 mph - N/A   Overcast
5:15 AM 17.6 °F - 6.8 °F 63% 29.97 in 10.0 mi Calm Calm - N/A   Overcast
5:35 AM 17.6 °F - 8.6 °F 68% 29.97 in 10.0 mi Calm Calm - N/A   Overcast
6:15 AM 15.8 °F 8.6 °F 8.6 °F 73% 29.96 in 10.0 mi SSE 4.6 mph - N/A   Mostly Cloudy
6:35 AM 15.8 °F 10.2 °F 6.8 °F 68% 29.95 in 10.0 mi SSE 3.5 mph - N/A   Partly Cloudy
7:15 AM 15.8 °F 10.2 °F 10.4 °F 79% 29.95 in 10.0 mi SSE 3.5 mph - N/A   Overcast
7:35 AM 15.8 °F 10.2 °F 10.4 °F 79% 29.95 in 10.0 mi South 3.5 mph - N/A   Overcast
7:55 AM 15.8 °F 10.2 °F 10.4 °F 79% 29.96 in 10.0 mi South 3.5 mph - N/A   Overcast
8:15 AM 17.6 °F 10.7 °F 10.4 °F 73% 29.96 in 10.0 mi South 4.6 mph - N/A   Overcast
8:35 AM 17.6 °F 9.3 °F 10.4 °F 73% 29.96 in 10.0 mi South 5.8 mph - N/A   Overcast
8:55 AM 17.6 °F 8.2 °F 10.4 °F 73% 29.96 in 10.0 mi South 6.9 mph - N/A   Mostly Cloudy
9:15 AM 19.4 °F 11.5 °F 10.4 °F 68% 29.96 in 10.0 mi South 5.8 mph - N/A   Overcast
9:35 AM 19.4 °F 12.8 °F 10.4 °F 68% 29.96 in 10.0 mi SSW 4.6 mph - N/A   Overcast
9:55 AM 19.4 °F 11.5 °F 8.6 °F 63% 29.95 in 10.0 mi SSW 5.8 mph - N/A   Mostly Cloudy
10:15 AM 19.4 °F 14.3 °F 8.6 °F 63% 29.95 in 10.0 mi SW 3.5 mph - N/A   Scattered Clouds
10:35 AM 21.2 °F 12.6 °F 8.6 °F 58% 29.95 in 10.0 mi South 6.9 mph - N/A   Partly Cloudy
10:55 AM 21.2 °F 12.6 °F 8.6 °F 58% 29.94 in 10.0 mi SSW 6.9 mph - N/A   Clear
11:15 AM 21.2 °F 16.4 °F 6.8 °F 54% 29.93 in 10.0 mi WSW 3.5 mph - N/A   Partly Cloudy
11:35 AM 23.0 °F 14.7 °F 8.6 °F 54% 29.93 in 10.0 mi South 6.9 mph - N/A   Mostly Cloudy
11:55 AM 23.0 °F - 8.6 °F 54% 29.93 in 10.0 mi Calm Calm - N/A   Overcast
12:15 PM 21.2 °F 12.6 °F 5.0 °F 50% 29.92 in 10.0 mi WSW 6.9 mph - N/A   Overcast
12:35 PM 21.2 °F 13.6 °F 6.8 °F 54% 29.91 in 10.0 mi West 5.8 mph - N/A   Overcast
12:55 PM 23.0 °F 15.8 °F 6.8 °F 50% 29.91 in 10.0 mi WSW 5.8 mph - N/A   Overcast
1:15 PM 23.0 °F 14.7 °F 6.8 °F 50% 29.89 in 10.0 mi WSW 6.9 mph - N/A   Overcast
1:35 PM 21.2 °F 10.1 °F 8.6 °F 58% 29.89 in 5.0 mi SW 10.4 mph 16.1 mph N/A   Overcast
1:55 PM 21.2 °F 7.8 °F 15.8 °F 80% 29.89 in 1.5 mi WNW 15.0 mph - N/A   Overcast
2:15 PM 19.4 °F 6.0 °F 14.0 °F 80% 29.89 in 3.0 mi WNW 13.8 mph - N/A   Overcast
2:35 PM 21.2 °F 9.5 °F 15.8 °F 80% 29.89 in 1.8 mi WNW 11.5 mph - N/A   Overcast
2:55 PM 19.4 °F 6.6 °F 10.4 °F 68% 29.89 in 3.0 mi WNW 12.7 mph - N/A   Overcast
3:15 PM 19.4 °F 10.4 °F 8.6 °F 63% 29.89 in 10.0 mi West 6.9 mph - N/A   Mostly Cloudy
3:35 PM 19.4 °F 6.6 °F 6.8 °F 58% 29.89 in 10.0 mi West 12.7 mph - N/A   Overcast
3:55 PM 19.4 °F 7.9 °F 8.6 °F 63% 29.89 in 10.0 mi NW 10.4 mph - N/A   Overcast
4:15 PM 19.4 °F 8.6 °F 5.0 °F 54% 29.90 in 10.0 mi WNW 9.2 mph - N/A   Overcast
4:35 PM 19.4 °F 7.2 °F 5.0 °F 54% 29.90 in 10.0 mi NW 11.5 mph - N/A   Overcast
4:55 PM 19.4 °F 6.6 °F 3.2 °F 49% 29.90 in 10.0 mi NW 12.7 mph - N/A   Overcast
5:15 PM 19.4 °F 8.6 °F 5.0 °F 54% 29.91 in 10.0 mi NW 9.2 mph - N/A   Overcast
5:35 PM 19.4 °F 9.5 °F 5.0 °F 54% 29.91 in 10.0 mi WNW 8.1 mph - N/A   Overcast
5:55 PM 17.6 °F 8.2 °F 3.2 °F 53% 29.91 in 10.0 mi NW 6.9 mph - N/A   Mostly Cloudy
6:15 PM 17.6 °F 9.3 °F 3.2 °F 53% 29.92 in 10.0 mi NW 5.8 mph - N/A   Scattered Clouds
6:35 PM 17.6 °F 12.3 °F 3.2 °F 53% 29.92 in 10.0 mi NW 3.5 mph - N/A   Partly Cloudy
6:55 PM 17.6 °F - 5.0 °F 58% 29.92 in 10.0 mi Calm Calm - N/A   Clear
7:15 PM 17.6 °F 10.7 °F 3.2 °F 53% 29.92 in 10.0 mi West 4.6 mph - N/A   Clear
7:35 PM 15.8 °F 7.2 °F 3.2 °F 58% 29.92 in 10.0 mi WNW 5.8 mph - N/A   Clear
7:55 PM 15.8 °F 7.2 °F 3.2 °F 58% 29.91 in 10.0 mi West 5.8 mph - N/A   Clear
8:15 PM 15.8 °F 7.2 °F 3.2 °F 58% 29.90 in 10.0 mi West 5.8 mph - N/A   Clear
8:35 PM 15.8 °F 7.2 °F 5.0 °F 62% 29.90 in 10.0 mi West 5.8 mph - N/A   Clear
8:55 PM 15.8 °F 7.2 °F 5.0 °F 62% 29.89 in 10.0 mi West 5.8 mph - N/A   Clear
9:15 PM 15.8 °F 7.2 °F 5.0 °F 62% 29.89 in 10.0 mi WNW 5.8 mph - N/A   Clear
9:35 PM 15.8 °F 7.2 °F 5.0 °F 62% 29.88 in 10.0 mi West 5.8 mph - N/A   Clear
9:55 PM 15.8 °F 7.2 °F 5.0 °F 62% 29.88 in 10.0 mi West 5.8 mph - N/A   Clear
10:15 PM 15.8 °F 7.2 °F 5.0 °F 62% 29.87 in 10.0 mi WNW 5.8 mph - N/A   Clear
10:35 PM 15.8 °F 7.2 °F 5.0 °F 62% 29.86 in 10.0 mi WNW 5.8 mph - N/A   Clear
10:55 PM 15.8 °F 7.2 °F 6.8 °F 68% 29.86 in 10.0 mi NW 5.8 mph - N/A   Mostly Cloudy
11:15 PM 14.0 °F 5.1 °F 5.0 °F 67% 29.85 in 10.0 mi NW 5.8 mph - N/A   Partly Cloudy
11:35 PM 15.8 °F 10.2 °F 6.8 °F 68% 29.85 in 10.0 mi NNW 3.5 mph - N/A   Mostly Cloudy
11:55 PM 14.0 °F 8.2 °F 6.8 °F 73% 29.85 in 10.0 mi NNW 3.5 mph - N/A   Scattered Clouds